This is the latest recevied weather packets stored in our database for station/object KC5TIL-3. If no packets are shown the sender has not sent any weather packets the latest 10 day(s).
| Time | Temp. | Humidity | Pressure | Rain* | Wind** | Luminosity | Snow |
|---|---|---|---|---|---|---|---|
| 1777818825 | 19.44° C | 26% | 1018.8 hPa | 0 mm | 2.24 m/s, 95° | - | - |
| 1777818517 | 19.44° C | 27% | 1018.8 hPa | 0 mm | 1.79 m/s, 241° | - | - |
| 1777818216 | 18.89° C | 30% | 1018.8 hPa | 0 mm | 1.79 m/s, 189° | - | - |
| 1777817918 | 18.33° C | 32% | 1018.8 hPa | 0 mm | 4.02 m/s, 199° | - | - |
| 1777817619 | 17.78° C | 32% | 1018.8 hPa | 0 mm | 3.58 m/s, 216° | - | - |
| 1777817318 | 17.78° C | 32% | 1018.8 hPa | 0 mm | 3.58 m/s, 206° | - | - |
| 1777817020 | 17.78° C | 32% | 1018.8 hPa | 0 mm | 3.13 m/s, 217° | - | - |
| 1777816722 | 17.22° C | 33% | 1018.8 hPa | 0 mm | 3.13 m/s, 202° | - | - |
| 1777816420 | 17.22° C | 34% | 1018.8 hPa | 0 mm | 4.02 m/s, 216° | - | - |
| 1777816122 | 17.22° C | 34% | 1018.8 hPa | 0 mm | 2.24 m/s, 190° | - | - |
| 1777815823 | 16.67° C | 34% | 1018.8 hPa | 0 mm | 2.24 m/s, 157° | - | - |
| 1777815522 | 16.11° C | 35% | 1018.8 hPa | 0 mm | 3.58 m/s, 216° | - | - |
| 1777815219 | 16.11° C | 35% | 1018.8 hPa | 0 mm | 4.02 m/s, 193° | - | - |
| 1777814921 | 16.11° C | 35% | 1018.8 hPa | 0 mm | 3.58 m/s, 197° | - | - |
| 1777814620 | 15.56° C | 35% | 1018.8 hPa | 0 mm | 3.58 m/s, 219° | - | - |
| 1777814321 | 15.56° C | 35% | 1018.8 hPa | 0 mm | 4.02 m/s, 225° | - | - |
| 1777814023 | 15.56° C | 36% | 1018.8 hPa | 0 mm | 3.13 m/s, 219° | - | - |
| 1777813722 | 15.56° C | 36% | 1018.8 hPa | 0 mm | 3.13 m/s, 234° | - | - |
| 1777813424 | 15° C | 36% | 1018.8 hPa | 0 mm | 4.02 m/s, 219° | - | - |
| 1777813126 | 15° C | 37% | 1018.8 hPa | 0 mm | 3.58 m/s, 200° | - | - |
| 1777812824 | 15° C | 37% | 1018.8 hPa | 0 mm | 3.13 m/s, 238° | - | - |
| 1777812522 | 15° C | 38% | 1018.8 hPa | 0 mm | 3.58 m/s, 213° | - | - |
| 1777812224 | 14.44° C | 38% | 1018.8 hPa | 0 mm | 2.24 m/s, 148° | - | - |
| 1777811922 | 14.44° C | 39% | 1018.8 hPa | 0 mm | 4.02 m/s, 208° | - | - |
| 1777811624 | 14.44° C | 40% | 1018.8 hPa | 0 mm | 2.68 m/s, 235° | - | - |
* Rain latest hour (hover to see other rain measurements)
** Current wind speed in m/s (hover to see current wind gust speed)